Location: Culleoka
(33.1312°N, 96.4919°W)
Time: 05:08:21
(UTC+00:00)

H-2A R/B - Pass Details

Date: 05 July 2022
Orbit: 577 x 651 km, 98.5° (Epoch: 07 August)

Event Time Altitude Azimuth Distance (km) Brightness Sun altitude
Rises 02:05:29 0° 23° (NNE) 2,949 5.7 -5.7°
Reaches altitude 10° 02:07:51 10° 33° (NNE) 2,044 4.7 -6.1°
Maximum altitude 02:11:56 35° 99° (E) 1,057 2.8 -6.8°
Drops below altitude 10° 02:16:00 10° 165° (SSE) 2,048 4.3 -7.5°
Sets 02:18:22 0° 174° (S) 2,955 5.2 -7.9°
